Miscellaneous Local Product
Issued by NWS North Platte, NE

Home | Current Version | Previous Version | Text Only | Print | Product List | Glossary On
Versions: 1 2 3 4 5 6 7 8 9 10 11 12 13 14 15 16 17 18 19 20 21 22 23 24 25 26 27 28 29 30 31 32 33 34 35 36 37 38 39 40 41 42 43 44 45 46 47 48 49 50
000
AXUS43 KLBF 301610
MISLBF


WESTERN AND NORTH CENTRAL NEBRASKA HOURLY WEATHER ROUNDUP
NATIONAL WEATHER SERVICE NORTH PLATTE NE
1000 AM CST FRI JAN 30 2015

***STATIONS NOT REPORTING VARIABLES SUCH AS SKY/WEATHER OR
PRESSURE ARE PROVIDED BY THE NEBRASKA DEPARTMENT OF
ROADS...RAWS...AND APRS NETWORKS...AND ARE NOT UNDER
NATIONAL WEATHER SERVICE QUALITY CONTROL***

...OBSERVATIONS IN AND NEAR THE EASTERN PANHANDLE OF NEBRASKA...

CITY           SKY/WX    TMP DP  RH WIND       PRES   REMARKS
PINE RIDGE     CLOUDY    37  21  52 S13       30.19F WCI  29
CHADRON        PTSUNNY   35  22  58 SW5       30.22R WCI  31
ALLIANCE       CLOUDY    31  24  75 S6        30.20F WCI  25
SIDNEY         PTSUNNY   34  25  69 S7        30.21S WCI  28
WHITECLAY        N/A     35  20  53 SE7         N/A  WCI  30
CRESCENT LAKE    N/A     31  22  70 S7          N/A  WCI  24
LISCO            N/A     35  19  52 E7          N/A  WCI  29
LEWELLEN         N/A     33  24  70 E5          N/A  WCI  28
$$

...OBSERVATIONS IN NORTH CENTRAL NEBRASKA...

CITY           SKY/WX    TMP DP  RH WIND       PRES   REMARKS
VALENTINE      PTSUNNY   33  26  75 S12       30.25F WCI  24
THEDFORD       CLOUDY    36  25  64 S12       30.28F WCI  28
AINSWORTH      PTSUNNY   31  24  73 S15       30.27F WCI  21
O`NEILL        PTSUNNY   29  26  89 S18       30.36F WCI  16
ORD            CLOUDY    26  22  84 S8        30.39F WCI  18
BROKEN BOW     PTSUNNY   30  23  75 S10       30.35F WCI  21
BROWNLEE         N/A     33  27  77 S9          N/A  WCI  25
VALENTINE NWR    N/A     25  21  83 S8          N/A  WCI  16
SPRINGVIEW       N/A     28  24  86 E3          N/A
HALSEY           N/A     32  23  69 S9          N/A  WCI  24
BREWSTER         N/A     32  28  83 S3          N/A
ROSE             N/A     30  30 100 E12         N/A  WCI  21
NEWPORT          N/A     33  29  85 S12         N/A  WCI  24
SARGENT          N/A     27  24  87 S3          N/A
COMSTOCK         N/A     32  29  87 S10         N/A  WCI  24
CHAMBERS         N/A     28  23  81 S6G17       N/A  WCI  22
EWING            N/A     28  26  91 S12         N/A  WCI  18
$$

...OBSERVATIONS IN SOUTHWEST NEBRASKA AND FAR NORTHEAST COLORADO...

CITY           SKY/WX    TMP DP  RH WIND       PRES   REMARKS
WRAY           FAIR      37  28  72 SE6       30.25F WCI  32
IMPERIAL       CLOUDY    33  24  69 SE10      30.27F WCI  25
OGALLALA       PTSUNNY   30  25  81 CALM      30.27F
NORTH PLATTE   PTSUNNY   34  25  69 S8        30.31F WCI  27
MCCOOK         CLOUDY    32  26  78 SE5       30.35F WCI  27
LEXINGTON      PTSUNNY   29  24  83 SE7       30.37F WCI  22
BRADY            N/A     30  24  79 NE3         N/A
GOTHENBURG       N/A     30  24  79 SE5         N/A  WCI  25
CALLAWAY         N/A     31  27  83 S12         N/A  WCI  22
$$

...NORTH PLATTE AREA...

CITY           SKY/WX    TMP DP  RH WIND       PRES   REMARKS
AIRPORT        PTSUNNY   34  25  69 S8        30.31F WCI  27
DOWNTOWN         N/A     34  25  69 SE3         N/A
$$

...SOME WEATHER OBSERVATIONS FROM AROUND THE REGION...

CITY           SKY/WX    TMP DP  RH WIND       PRES   REMARKS
DENVER         CLOUDY    35  25  66 SW6       30.18F WCI  30
LARAMIE        PTSUNNY   30  24  78 N3        30.19F
CHEYENNE       PTSUNNY   38  24  57 NW3       30.17F
SCOTTSBLUFF    PTSUNNY   30  23  75 CALM      30.21S
RAPID CITY     PTSUNNY   33  24  69 NW7       30.17S WCI  27
PIERRE         MOSUNNY   27  22  81 SE12      30.22F WCI  17
WINNER         FAIR      35  23  61 S23G30    30.24F WCI  23
SIOUX FALLS    MOSUNNY   24  19  81 S18       30.42F WCI  10
OMAHA          MOSUNNY   24  18  77 S8        30.55S WCI  15
GRAND ISLAND     N/A     28  23  81 S12       30.45F WCI  18
KANSAS CITY    CLOUDY    26  21  81 E5        30.55R WCI  20
WICHITA        CLOUDY    34  27  75 S7        30.54R WCI  28
HAYS           CLOUDY    30  19  64 S7        30.45S WCI  23
LIBERAL        CLOUDY    39  27  60 S13       30.44S WCI  32
GOODLAND       CLOUDY    37  27  67 S18       30.28F WCI  27
$$



USA.gov is the U.S. government's official web portal to all federal, state and local government web resources and services.